Location: Naples
(26.1420°N, 81.7950°W)
Time: 13:18:41
(UTC-04:00)

Tiangong - Pass Details

Date: 17 May 2026
Orbit: 380 x 392 km, 41.5° (Epoch: 11 June)

Event Time Altitude Azimuth Distance (km) Brightness Sun altitude
Exits shadow 05:38:38 - 299° (WNW) 1,460 0.5 -13.2°
Reaches altitude 10° 05:38:46 10° 299° (WNW) 1,404 0.4 -13.2°
Maximum altitude 05:41:54 64° 217° (SW) 425 -2.2 -12.6°
Drops below altitude 10° 05:45:01 10° 135° (SE) 1,390 0.9 -11.9°
Sets 05:47:05 0° 132° (SE) 2,237 2.0 -11.5°
